GW0415 Weather Reports


Display with metric or nautical units.
time (UTC)temp
F
wind
direction
speed
MPH
gust
MPH
rain 1hr
in
rain 24hr
in
rain mn
in
humidity
%
barometer
mb
20221206101441 13 68 0.0 4.0 0.00 0.00 0.00 81 1016.5
20221206100940 13 45 3.0 3.0 0.00 0.00 0.00 81 1016.6
20221206100440 13 49 3.0 3.0 0.00 0.00 0.00 82 1016.8
20221206095938 12 56 0.0 2.0 0.00 0.00 0.00 83 1016.8
20221206095438 12 96 0.0 2.0 0.00 0.00 0.00 82 1017.3
20221206094936 12 157 0.0 2.0 0.00 0.00 0.00 82 1017.3
20221206094434 12 112 2.0 2.0 0.00 0.00 0.00 82 1017.3
20221206093933 13 78 1.0 1.0 0.00 0.00 0.00 81 1017.0
20221206093432 13 132 2.0 2.0 0.00 0.00 0.00 81 1016.7
20221206092930 13 60 1.0 3.0 0.00 0.00 0.00 81 1016.6
20221206092428 13 82 0.0 3.0 0.00 0.00 0.00 82 1016.7
20221206091927 13 90 0.0 1.0 0.00 0.00 0.00 81 1016.7
20221206091426 13 114 1.0 2.0 0.00 0.00 0.00 81 1016.9
20221206090924 13 60 1.0 2.0 0.00 0.00 0.00 81 1016.8
20221206090423 13 120 0.0 2.0 0.00 0.00 0.00 80 1017.3
20221206085923 13 82 0.0 2.0 0.00 0.00 0.00 80 1017.1
20221206085422 14 114 0.0 2.0 0.00 0.00 0.00 80 1017.2
20221206084922 14 63 0.0 2.0 0.00 0.00 0.00 80 1016.9
20221206084421 14 26 2.0 3.0 0.00 0.00 0.00 80 1016.9
20221206083919 14 60 0.0 1.0 0.00 0.00 0.00 79 1017.6
20221206083417 14 107 1.0 2.0 0.00 0.00 0.00 79 1017.7
20221206082917 14 123 1.0 2.0 0.00 0.00 0.00 78 1017.7
20221206082416 14 31 2.0 2.0 0.00 0.00 0.00 78 1017.8
20221206081914 15 120 0.0 3.0 0.00 0.00 0.00 77 1017.7
20221206081415 15 50 0.0 3.0 0.00 0.00 0.00 77 1018.0
20221206080914 15 57 2.0 3.0 0.00 0.00 0.00 77 1017.8
20221206080414 15 26 2.0 3.0 0.00 0.00 0.00 78 1017.6
20221206075912 14 35 3.0 3.0 0.00 0.00 0.00 78 1017.8
20221206075411 14 63 1.0 3.0 0.00 0.00 0.00 79 1017.6
20221206074911 14 77 0.0 2.0 0.00 0.00 0.00 78 1017.6
20221206074411 15 117 0.0 2.0 0.00 0.00 0.00 78 1017.6
20221206073910 14 90 1.0 2.0 0.00 0.00 0.00 79 1017.2
20221206073410 14 85 2.0 2.0 0.00 0.00 0.00 79 1017.5
20221206072908 14 117 0.0 2.0 0.00 0.00 0.00 77 1017.3
20221206072408 15 60 0.0 2.0 0.00 0.00 0.00 77 1017.3
20221206071907 15 85 2.0 3.0 0.00 0.00 0.00 77 1017.2
20221206071406 15 82 0.0 3.0 0.00 0.00 0.00 77 1017.2
20221206070904 15 90 0.0 2.0 0.00 0.00 0.00 76 1017.1
20221206070403 15 56 2.0 3.0 0.00 0.00 0.00 76 1017.2
20221206065902 15 123 1.0 3.0 0.00 0.00 0.00 76 1017.2
20221206065402 15 60 1.0 2.0 0.00 0.00 0.00 77 1017.2
20221206064900 15 36 1.0 2.0 0.00 0.00 0.00 77 1017.3
20221206064400 15 117 0.0 2.0 0.00 0.00 0.00 77 1017.2
20221206063900 16 90 0.0 2.0 0.00 0.00 0.00 76 1017.4
20221206063400 16 105 0.0 2.0 0.00 0.00 0.00 77 1017.3
20221206062858 16 48 2.0 2.0 0.00 0.00 0.00 77 1017.1
20221206062357 16 102 0.0 3.0 0.00 0.00 0.00 77 1017.2
20221206061855 15 75 0.0 2.0 0.00 0.00 0.00 78 1017.3
20221206061354 15 74 0.0 2.0 0.00 0.00 0.00 77 1017.2
20221206060852 16 124 0.0 2.0 0.00 0.00 0.00 76 1017.2
20221206060352 16 147 0.0 2.0 0.00 0.00 0.00 76 1017.0
20221206055852 16 96 0.0 2.0 0.00 0.00 0.00 76 1016.8
20221206055351 16 75 0.0 3.0 0.00 0.00 0.00 76 1017.0
20221206054849 16 77 2.0 3.0 0.00 0.00 0.00 76 1017.0
20221206054348 16 97 0.0 2.0 0.00 0.00 0.00 75 1017.0
20221206053846 16 105 1.0 3.0 0.00 0.00 0.00 75 1017.1
20221206053345 17 103 1.0 2.0 0.00 0.00 0.00 74 1016.9
20221206052844 17 40 1.0 3.0 0.00 0.00 0.00 73 1017.0
20221206052343 17 57 3.0 4.0 0.00 0.00 0.00 73 1016.9
20221206051843 17 175 0.0 3.0 0.00 0.00 0.00 73 1016.7
20221206051341 17 103 1.0 4.0 0.00 0.00 0.00 73 1016.7
20221206050840 17 85 2.0 2.0 0.00 0.00 0.00 72 1016.5
20221206050340 18 51 2.0 4.0 0.00 0.00 0.00 72 1016.5
20221206045839 18 90 2.0 3.0 0.00 0.00 0.00 71 1016.6
20221206045337 18 117 0.0 3.0 0.00 0.00 0.00 71 1016.1
20221206044836 18 114 0.0 4.0 0.00 0.00 0.00 71 1016.5
20221206044335 18 114 2.0 4.0 0.00 0.00 0.00 70 1016.5
20221206043835 19 107 1.0 4.0 0.00 0.00 0.00 70 1016.1
20221206043334 19 130 2.0 4.0 0.00 0.00 0.00 70 1015.9
20221206042833 19 84 1.0 3.0 0.00 0.00 0.00 70 1015.8
20221206042333 19 82 2.0 4.0 0.00 0.00 0.00 69 1015.9
20221206041832 19 107 1.0 3.0 0.00 0.00 0.00 69 1015.7
20221206041331 19 98 1.0 3.0 0.00 0.00 0.00 68 1016.1
20221206040830 19 105 0.0 4.0 0.00 0.00 0.00 68 1016.5
20221206040329 19 130 2.0 4.0 0.00 0.00 0.00 67 1016.0
20221206035827 19 144 2.0 3.0 0.00 0.00 0.00 67 1016.1
20221206035325 19 107 1.0 3.0 0.00 0.00 0.00 66 1015.8
20221206034825 19 120 2.0 4.0 0.00 0.00 0.00 65 1015.9
20221206034324 20 98 0.0 2.0 0.00 0.00 0.00 65 1015.8
20221206033823 20 127 0.0 3.0 0.00 0.00 0.00 64 1016.0
20221206033321 20 121 2.0 3.0 0.00 0.00 0.00 64 1016.1
20221206032820 20 160 1.0 4.0 0.00 0.00 0.00 64 1016.0
20221206032320 20 106 2.0 3.0 0.00 0.00 0.00 63 1016.1
20221206031819 21 73 1.0 3.0 0.00 0.00 0.00 62 1016.1
20221206031319 21 97 0.0 2.0 0.00 0.00 0.00 61 1016.1
20221206030817 21 73 3.0 3.0 0.00 0.00 0.00 60 1016.1
20221206030317 21 139 2.0 5.0 0.00 0.00 0.00 60 1015.6
20221206025816 21 69 0.0 3.0 0.00 0.00 0.00 61 1015.7
20221206025316 21 90 0.0 3.0 0.00 0.00 0.00 61 1015.9
20221206024816 21 90 0.0 3.0 0.00 0.00 0.00 61 1015.6
20221206024314 21 74 2.0 3.0 0.00 0.00 0.00 60 1015.5
20221206023813 22 90 0.0 4.0 0.00 0.00 0.00 59 1015.8
20221206023311 22 180 0.0 3.0 0.00 0.00 0.00 57 1015.8
20221206022810 22 119 3.0 3.0 0.00 0.00 0.00 59 1015.9
20221206022310 22 189 2.0 5.0 0.00 0.00 0.00 58 1015.8
20221206021810 22 113 4.0 4.0 0.00 0.00 0.00 60 1015.6
20221206021309 22 119 2.0 4.0 0.00 0.00 0.00 59 1015.7
20221206020808 22 131 3.0 3.0 0.00 0.00 0.00 59 1015.6
20221206020307 23 53 0.0 6.0 0.00 0.00 0.00 57 1015.6
20221206015806 23 170 0.0 4.0 0.00 0.00 0.00 57 1015.8
20221206015305 23 75 1.0 4.0 0.00 0.00 0.00 58 1015.7
20221206014804 23 75 1.0 5.0 0.00 0.00 0.00 56 1015.3
20221206014303 23 120 3.0 4.0 0.00 0.00 0.00 56 1015.4
20221206013803 23 59 2.0 6.0 0.00 0.00 0.00 59 1015.4
20221206013302 24 64 5.0 7.0 0.00 0.00 0.00 64 1015.5
20221206012802 24 53 2.0 4.0 0.00 0.00 0.00 76 1015.4
20221206012305 24 122 2.0 3.0 0.00 0.00 0.00 78 1015.3
20221206011802 24 63 0.0 4.0 0.00 0.00 0.00 77 1015.1
20221206011302 24 131 1.0 3.0 0.00 0.00 0.00 78 1015.1
20221206010801 24 70 2.0 3.0 0.00 0.00 0.00 78 1015.2
20221206010259 24 51 0.0 3.0 0.00 0.00 0.00 79 1015.1
20221206005757 24 77 1.0 2.0 0.00 0.00 0.00 78 1015.1
20221206005255 24 98 3.0 5.0 0.00 0.00 0.00 78 1014.9
20221206004755 24 90 2.0 4.0 0.00 0.00 0.00 79 1015.2
20221206004254 24 108 2.0 4.0 0.00 0.00 0.00 79 1014.9
20221206003754 24 128 3.0 3.0 0.00 0.00 0.00 79 1015.0
20221206003253 24 56 2.0 4.0 0.00 0.00 0.00 79 1015.0
20221206002752 24 96 0.0 3.0 0.00 0.00 0.00 80 1015.1
20221206002250 24 117 0.0 3.0 0.00 0.00 0.00 80 1015.2
20221206001750 24 94 2.0 4.0 0.00 0.00 0.00 80 1015.2
20221206001249 24 144 0.0 3.0 0.00 0.00 0.00 81 1014.7
20221206000749 24 74 0.0 6.0 0.00 0.00 0.00 81 1014.8
20221206000249 24 25 3.0 3.0 0.00 0.00 0.00 81 1014.8
20221205235748 24 166 2.0 4.0 0.00 0.00 0.00 82 1014.8
20221205235248 24 110 0.0 3.0 0.00 0.00 0.00 82 1014.5
20221205234748 24 148 1.0 4.0 0.00 0.00 0.00 82 1014.5
20221205234246 24 90 3.0 6.0 0.00 0.00 0.00 82 1014.6
20221205233745 24 121 2.0 4.0 0.00 0.00 0.00 82 1014.2
20221205233243 24 70 2.0 3.0 0.00 0.00 0.00 81 1014.5
20221205232743 25 32 3.0 5.0 0.00 0.00 0.00 79 1014.3
20221205232243 25 90 2.0 5.0 0.00 0.00 0.00 79 1014.5
20221205231743 25 135 2.0 7.0 0.00 0.00 0.00 78 1014.0
20221205231243 25 112 0.0 5.0 0.00 0.00 0.00 79 1014.0
20221205230742 25 43 3.0 3.0 0.00 0.00 0.00 80 1014.3
20221205230240 25 90 0.0 3.0 0.00 0.00 0.00 81 1014.3
20221205225738 25 90 3.0 3.0 0.00 0.00 0.00 82 1014.1
20221205225237 25 103 4.0 5.0 0.00 0.00 0.00 81 1013.9
20221205224736 25 0 3.0 3.0 0.00 0.00 0.00 82 1013.6
20221205224234 25 48 2.0 3.0 0.00 0.00 0.00 81 1013.6
20221205223734 26 85 3.0 4.0 0.00 0.00 0.00 81 1013.8
20221205223234 26 83 2.0 7.0 0.00 0.00 0.00 79 1013.8
20221205222734 26 85 0.0 4.0 0.00 0.00 0.00 81 1013.7
20221205222232 26 48 2.0 6.0 0.00 0.00 0.00 81 1013.7
20221205221731 26 137 5.0 5.0 0.00 0.00 0.00 79 1013.7
20221205221230 27 103 2.0 10.0 0.00 0.00 0.00 78 1013.6
20221205220730 27 112 5.0 6.0 0.00 0.00 0.00 75 1013.5
20221205220228 27 348 0.0 6.0 0.00 0.00 0.00 71 1013.2
20221205215726 27 145 3.0 7.0 0.00 0.00 0.00 71 1013.3
20221205215226 27 82 1.0 4.0 0.00 0.00 0.00 71 1013.2
20221205214725 28 71 1.0 4.0 0.00 0.00 0.00 69 1013.2
20221205214224 28 151 3.0 9.0 0.00 0.00 0.00 68 1013.0
20221205213722 28 90 0.0 5.0 0.00 0.00 0.00 66 1013.1
20221205213222 28 106 0.0 5.0 0.00 0.00 0.00 66 1013.1
20221205212720 28 96 3.0 6.0 0.00 0.00 0.00 65 1013.0
20221205212220 28 105 0.0 8.0 0.00 0.00 0.00 64 1012.9
20221205211720 29 134 4.0 6.0 0.00 0.00 0.00 63 1012.7
20221205211219 29 124 2.0 3.0 0.00 0.00 0.00 65 1012.6
20221205210718 29 317 4.0 4.0 0.00 0.00 0.00 65 1012.5
20221205210218 29 85 2.0 3.0 0.00 0.00 0.00 65 1012.5
20221205205716 29 63 2.0 7.0 0.00 0.00 0.00 63 1012.5
20221205205216 29 138 3.0 6.0 0.00 0.00 0.00 63 1012.2
20221205204714 29 60 5.0 6.0 0.00 0.00 0.00 63 1012.2
20221205204214 29 114 2.0 4.0 0.00 0.00 0.00 62 1011.7
20221205203713 29 90 2.0 4.0 0.00 0.00 0.00 62 1011.8
20221205203211 29 14 2.0 6.0 0.00 0.00 0.00 62 1011.9
20221205202711 30 79 2.0 6.0 0.00 0.00 0.00 61 1012.0
20221205202210 30 75 2.0 7.0 0.00 0.00 0.00 64 1011.8
20221205201710 30 28 3.0 6.0 0.00 0.00 0.00 64 1011.8
20221205201210 30 49 3.0 9.0 0.00 0.00 0.00 63 1011.8
20221205200709 30 180 1.0 5.0 0.00 0.00 0.00 63 1011.8
20221205200208 30 74 2.0 7.0 0.00 0.00 0.00 63 1011.8
20221205195708 31 141 0.0 6.0 0.00 0.00 0.00 64 1011.7
20221205195208 30 82 2.0 4.0 0.00 0.00 0.00 64 1011.4
20221205194707 31 101 0.0 5.0 0.00 0.00 0.00 65 1011.4
20221205194207 31 71 2.0 8.0 0.00 0.00 0.00 64 1011.4
20221205193706 31 138 0.0 5.0 0.00 0.00 0.00 64 1011.3
20221205193206 31 90 3.0 7.0 0.00 0.00 0.00 64 1011.1
20221205192704 31 99 0.0 4.0 0.00 0.00 0.00 65 1011.3
20221205192203 31 109 5.0 5.0 0.00 0.00 0.00 64 1011.1
20221205191703 31 90 2.0 5.0 0.00 0.00 0.00 64 1011.2
20221205191201 31 109 3.0 6.0 0.00 0.00 0.00 63 1011.1
20221205190700 31 90 3.0 6.0 0.00 0.00 0.00 64 1010.8
20221205190200 31 84 1.0 7.0 0.00 0.00 0.00 65 1010.5
20221205185659 31 139 4.0 5.0 0.00 0.00 0.00 64 1010.7
20221205185157 31 121 4.0 6.0 0.00 0.00 0.00 65 1011.0
20221205184656 31 188 2.0 6.0 0.00 0.00 0.00 64 1010.9
20221205184154 31 107 3.0 7.0 0.00 0.00 0.00 64 1011.0
20221205183652 31 102 2.0 6.0 0.00 0.00 0.00 66 1010.8
20221205183152 30 99 3.0 7.0 0.00 0.00 0.00 67 1011.0
20221205182651 31 100 0.0 5.0 0.00 0.00 0.00 69 1010.8
20221205182151 30 60 3.0 5.0 0.00 0.00 0.00 68 1010.8
20221205181650 30 116 3.0 3.0 0.00 0.00 0.00 68 1010.6
20221205181149 30 132 3.0 8.0 0.00 0.00 0.00 69 1010.8
20221205180647 30 86 3.0 4.0 0.00 0.00 0.00 69 1010.4
20221205180147 30 34 7.0 7.0 0.00 0.00 0.00 68 1010.8
20221205175646 31 112 2.0 4.0 0.00 0.00 0.00 69 1010.6
20221205175146 30 14 4.0 6.0 0.00 0.00 0.00 68 1010.8
20221205174646 30 83 2.0 4.0 0.00 0.00 0.00 69 1010.9
20221205174145 30 0 2.0 4.0 0.00 0.00 0.00 70 1011.0
20221205173643 30 85 2.0 5.0 0.00 0.00 0.00 69 1010.8
20221205173141 30 74 2.0 6.0 0.00 0.00 0.00 69 1010.8
20221205172640 30 114 3.0 8.0 0.00 0.00 0.00 69 1010.8
20221205172140 30 92 5.0 5.0 0.00 0.00 0.00 69 1010.8
20221205171638 30 101 2.0 7.0 0.00 0.00 0.00 68 1010.9
20221205171136 30 111 3.0 7.0 0.00 0.00 0.00 69 1010.9
20221205170635 30 139 0.0 6.0 0.00 0.00 0.00 69 1011.4
20221205170133 30 90 1.0 6.0 0.00 0.00 0.00 69 1010.8
20221205165632 30 37 2.0 6.0 0.00 0.00 0.00 69 1010.9
20221205165132 30 73 1.0 4.0 0.00 0.00 0.00 69 1010.9
20221205164630 30 133 2.0 5.0 0.00 0.00 0.00 70 1010.6
20221205164129 30 114 4.0 6.0 0.00 0.00 0.00 70 1011.0
20221205163628 30 32 0.0 7.0 0.00 0.00 0.00 69 1011.0
20221205163126 30 135 0.0 4.0 0.00 0.00 0.00 68 1011.0
20221205162626 30 90 3.0 3.0 0.00 0.00 0.00 69 1010.8
20221205162125 30 71 3.0 4.0 0.00 0.00 0.00 69 1011.1
20221205161623 29 292 2.0 3.0 0.00 0.00 0.00 70 1010.7
20221205161123 29 90 2.0 5.0 0.00 0.00 0.00 70 1010.7
20221205160623 29 134 3.0 5.0 0.00 0.00 0.00 70 1010.7
20221205160121 29 90 3.0 5.0 0.00 0.00 0.00 71 1010.8
20221205155620 29 41 2.0 6.0 0.00 0.00 0.00 71 1010.5
20221205155120 29 72 0.0 6.0 0.00 0.00 0.00 71 1010.4
20221205154619 29 354 1.0 6.0 0.00 0.00 0.00 71 1010.4
20221205154118 29 137 5.0 7.0 0.00 0.00 0.00 71 1010.3
20221205153616 29 139 2.0 5.0 0.00 0.00 0.00 71 1010.2
20221205153116 29 59 4.0 4.0 0.00 0.00 0.00 71 1010.6
20221205152614 29 146 0.0 3.0 0.00 0.00 0.00 71 1010.3
20221205152113 29 119 2.0 5.0 0.00 0.00 0.00 72 1010.0
20221205151612 29 90 0.0 4.0 0.00 0.00 0.00 72 1009.8
20221205151112 28 31 6.0 7.0 0.00 0.00 0.00 73 1009.9
20221205150610 28 117 0.0 5.0 0.00 0.00 0.00 73 1010.0
20221205150110 28 36 2.0 3.0 0.00 0.00 0.00 74 1009.6
20221205145608 28 102 1.0 4.0 0.00 0.00 0.00 73 1009.9
20221205145107 28 67 0.0 8.0 0.00 0.00 0.00 74 1009.7
20221205144605 28 110 3.0 7.0 0.00 0.00 0.00 74 1009.8
20221205144105 28 77 2.0 5.0 0.00 0.00 0.00 75 1010.0
20221205143604 28 74 4.0 5.0 0.00 0.00 0.00 74 1009.8
20221205143103 28 121 3.0 4.0 0.00 0.00 0.00 75 1009.7
20221205142602 27 129 2.0 6.0 0.00 0.00 0.00 76 1009.6
20221205142100 27 45 3.0 3.0 0.00 0.00 0.00 77 1009.5
20221205141600 27 125 2.0 5.0 0.00 0.00 0.00 77 1009.2
20221205141059 27 125 3.0 4.0 0.00 0.00 0.00 77 1009.5
20221205140558 27 78 3.0 3.0 0.00 0.00 0.00 78 1009.0
20221205140057 27 45 2.0 4.0 0.00 0.00 0.00 78 1009.0
20221205135557 26 123 2.0 3.0 0.00 0.00 0.00 79 1009.0
20221205135056 26 139 2.0 4.0 0.00 0.00 0.00 79 1009.0
20221205134555 26 121 4.0 4.0 0.00 0.00 0.00 80 1008.8
20221205134054 26 117 2.0 3.0 0.00 0.00 0.00 81 1008.5
20221205133552 25 85 0.0 2.0 0.00 0.00 0.00 82 1008.9
20221205133050 25 57 2.0 3.0 0.00 0.00 0.00 83 1008.5
20221205132549 24 119 2.0 3.0 0.00 0.00 0.00 83 1008.5
20221205132047 24 90 0.0 3.0 0.00 0.00 0.00 83 1007.9
20221205131547 24 103 2.0 3.0 0.00 0.00 0.00 83 1007.8
20221205131046 24 105 1.0 2.0 0.00 0.00 0.00 83 1008.1
20221205130544 24 90 0.0 2.0 0.00 0.00 0.00 83 1007.9
20221205130043 24 97 1.0 2.0 0.00 0.00 0.00 83 1007.4
20221205125541 25 100 2.0 3.0 0.00 0.00 0.00 83 1007.5
20221205125040 24 103 1.0 2.0 0.00 0.00 0.00 83 1007.6
20221205124539 25 90 1.0 3.0 0.00 0.00 0.00 82 1007.7
20221205124037 25 90 1.0 3.0 0.00 0.00 0.00 82 1007.9
20221205123536 25 96 1.0 2.0 0.00 0.00 0.00 81 1007.7
20221205123033 26 90 1.0 2.0 0.00 0.00 0.00 81 1007.8
20221205122533 26 90 1.0 2.0 0.00 0.00 0.00 80 1007.7
20221205122032 26 84 1.0 2.0 0.00 0.00 0.00 80 1007.5
20221205121532 26 90 1.0 2.0 0.00 0.00 0.00 79 1007.6
20221205121030 26 111 1.0 2.0 0.00 0.00 0.00 79 1007.6
20221205120528 27 96 0.0 2.0 0.00 0.00 0.00 79 1007.3
20221205120028 27 101 2.0 3.0 0.00 0.00 0.00 79 1007.2
20221205115527 27 102 1.0 2.0 0.00 0.00 0.00 79 1007.5
20221205115025 27 73 1.0 3.0 0.00 0.00 0.00 78 1007.5
20221205114524 27 86 2.0 3.0 0.00 0.00 0.00 79 1007.5
20221205114022 27 128 3.0 3.0 0.00 0.00 0.00 78 1007.3
20221205113521 27 98 1.0 3.0 0.00 0.00 0.00 77 1006.9
20221205113020 28 81 2.0 4.0 0.00 0.00 0.00 77 1007.1
20221205112520 28 112 2.0 4.0 0.00 0.00 0.00 77 1006.9
20221205112018 28 77 2.0 3.0 0.00 0.00 0.00 77 1006.8
20221205111517 28 108 0.0 4.0 0.00 0.00 0.00 76 1006.9
20221205111015 28 74 2.0 5.0 0.00 0.00 0.00 76 1006.9
20221205110515 28 97 0.0 3.0 0.00 0.00 0.00 76 1007.1
20221205110015 28 115 2.0 3.0 0.00 0.00 0.00 76 1007.1
20221205105514 28 334 1.0 5.0 0.00 0.00 0.00 77 1007.3
20221205105012 27 8 0.0 3.0 0.00 0.00 0.00 78 1007.2
20221205104512 27 102 0.0 3.0 0.00 0.00 0.00 79 1007.3
20221205104010 27 159 2.0 3.0 0.00 0.00 0.00 79 1007.4
20221205103508 27 109 1.0 3.0 0.00 0.00 0.00 80 1007.5
20221205103007 27 94 2.0 3.0 0.00 0.00 0.00 80 1007.2
20221205102507 26 85 2.0 3.0 0.00 0.00 0.00 80 1007.1
20221205102006 26 105 1.0 3.0 0.00 0.00 0.00 81 1007.4